Madison, SD

6:08 AM CDT on March 28, 2017 (GMT -0500)
Madison Municipal

Weather History for KMDS - April, 2013

Change the Weather History Date:

Friday, April 5, 2013

  Actual Average Record
Temperature  
Mean Temperature 38 °F -  
Max Temperature 50 °F 51 °F 64 °F (2015)
Min Temperature 26 °F 29 °F 24 °F (2014)
Degree Days  
Heating Degree Days 27    
Moisture  
Dew Point 28 °F    
Average Humidity 71    
Maximum Humidity 93    
Minimum Humidity 49    
Precipitation  
Precipitation 0.00 in - - ()
Sea Level Pressure  
Sea Level Pressure 29.94 in    
Wind  
Wind Speed 16 mph (ESE)    
Max Wind Speed 30 mph    
Max Gust Speed 38 mph    
Visibility 10 miles    
Events      
Averages and records for this station are not official NWS values.
T = Trace of Precipitation, MM = Missing Value Source: NWS Daily Summary

Daily Weather History Graph

Daily Weather History Graph

Search for Another Location

Airport or City:

Trip Planner

Search our weather history database for the weather conditions in past years. The results will help you decide how hot, cold, wet, or windy it might be!

Date:

Astronomy

Apr. 05, 2013 Rise Set
Actual Time 7:02 AM CDT 8:00 PM CDT
Civil Twilight 6:32 AM CDT 8:30 PM CDT
Nautical Twilight 5:57 AM CDT 9:05 PM CDT
Astronomical Twilight 5:20 AM CDT 9:42 PM CDT
Moon 4:19 AM CDT (4/5) 3:17 PM CDT (4/5)
Length of Visible Light 13h 57m
Length of Day
12h 58m
Waning Crescent, 23% of the Moon is Illuminated
Apr 5
Waning Crescent
Apr 10
New
Apr 18
First Quarter
Apr 25
Full
May 2
Last Quarter

Hourly Weather History & Observations

Time (CDT) Temp. Windchill Dew Point Humidity Pressure Visibility Wind Dir Wind Speed Gust Speed Precip Events Conditions
12:15 AM 26.6 °F 16.8 °F 24.8 °F 93% 30.19 in 10.0 mi NNE 10.4 mph - N/A   Partly Cloudy
12:35 AM 26.6 °F 16.2 °F 24.8 °F 93% 30.18 in 10.0 mi NE 11.5 mph - N/A   Mostly Cloudy
12:55 AM 26.6 °F 15.7 °F 24.8 °F 93% 30.18 in 10.0 mi NE 12.7 mph - N/A   Overcast
1:15 AM 28.4 °F 17.5 °F 24.8 °F 86% 30.18 in 10.0 mi NE 13.8 mph - N/A   Overcast
1:35 AM 28.4 °F 17.5 °F 24.8 °F 86% 30.18 in 10.0 mi NE 13.8 mph - N/A   Overcast
1:55 AM 26.6 °F 15.7 °F 23.0 °F 86% 30.18 in 10.0 mi NE 12.7 mph - N/A   Overcast
2:15 AM 26.6 °F 16.2 °F 23.0 °F 86% 30.17 in 10.0 mi ENE 11.5 mph - N/A   Overcast
2:35 AM 26.6 °F 14.7 °F 24.8 °F 93% 30.16 in 10.0 mi ENE 15.0 mph - N/A   Overcast
2:55 AM 26.6 °F 14.3 °F 23.0 °F 86% 30.15 in 10.0 mi ENE 16.1 mph - N/A   Overcast
3:15 AM 26.6 °F 14.7 °F 23.0 °F 86% 30.14 in 10.0 mi ENE 15.0 mph - N/A   Overcast
3:35 AM 26.6 °F 14.3 °F 23.0 °F 86% 30.14 in 10.0 mi ENE 16.1 mph - N/A   Overcast
3:55 AM 26.6 °F 15.2 °F 21.2 °F 80% 30.14 in 10.0 mi ENE 13.8 mph - N/A   Overcast
4:15 AM 26.6 °F 16.2 °F 23.0 °F 86% 30.14 in 10.0 mi ENE 11.5 mph - N/A   Overcast
4:35 AM 26.6 °F 14.7 °F 23.0 °F 86% 30.14 in 10.0 mi East 15.0 mph - N/A   Overcast
4:55 AM 26.6 °F 16.8 °F 24.8 °F 93% 30.14 in 10.0 mi East 10.4 mph - N/A   Overcast
5:15 AM 26.6 °F 15.2 °F 24.8 °F 93% 30.13 in 10.0 mi East 13.8 mph - N/A   Overcast
5:35 AM 26.6 °F 17.5 °F 24.8 °F 93% 30.14 in 10.0 mi East 9.2 mph - N/A   Overcast
5:55 AM 26.6 °F 16.8 °F 24.8 °F 93% 30.14 in 10.0 mi ESE 10.4 mph - N/A   Overcast
6:15 AM 26.6 °F 16.8 °F 24.8 °F 93% 30.14 in 10.0 mi ESE 10.4 mph - N/A   Mostly Cloudy
6:35 AM 26.6 °F 16.8 °F 24.8 °F 93% 30.13 in 10.0 mi ESE 10.4 mph - N/A   Scattered Clouds
6:55 AM 26.6 °F 16.2 °F 24.8 °F 93% 30.12 in 10.0 mi ESE 11.5 mph - N/A   Scattered Clouds
7:15 AM 26.6 °F 17.5 °F 24.8 °F 93% 30.13 in 10.0 mi ESE 9.2 mph - N/A   Scattered Clouds
7:35 AM 26.6 °F 16.2 °F 24.8 °F 93% 30.13 in 10.0 mi ESE 11.5 mph - N/A   Partly Cloudy
7:55 AM 28.4 °F 17.5 °F 24.8 °F 86% 30.12 in 10.0 mi SE 13.8 mph - N/A   Partly Cloudy
8:15 AM 28.4 °F 17.0 °F 24.8 °F 86% 30.12 in 10.0 mi SE 15.0 mph - N/A   Clear
8:35 AM 28.4 °F 15.4 °F 24.8 °F 86% 30.11 in 10.0 mi SE 19.6 mph - N/A   Partly Cloudy
8:55 AM 30.2 °F 18.1 °F 24.8 °F 80% 30.09 in 10.0 mi SE 18.4 mph 26.5 mph N/A   Mostly Cloudy
9:15 AM 32.0 °F 19.5 °F 24.8 °F 75% 30.06 in 10.0 mi SE 21.9 mph 27.6 mph N/A   Scattered Clouds
9:35 AM 32.0 °F 20.1 °F 24.8 °F 75% 30.04 in 10.0 mi SE 19.6 mph 27.6 mph N/A   Clear
9:55 AM 32.0 °F 21.2 °F 24.8 °F 75% 30.04 in 10.0 mi SE 16.1 mph 29.9 mph N/A   Partly Cloudy
10:15 AM 32.0 °F 20.1 °F 24.8 °F 75% 30.04 in 10.0 mi SE 19.6 mph 26.5 mph N/A   Clear
10:35 AM 33.8 °F 22.5 °F 24.8 °F 70% 30.04 in 10.0 mi SSE 19.6 mph 26.5 mph N/A   Mostly Cloudy
10:55 AM 33.8 °F 21.9 °F 24.8 °F 70% 30.03 in 10.0 mi SE 21.9 mph 28.8 mph N/A   Partly Cloudy
11:15 AM 35.6 °F 24.5 °F 24.8 °F 65% 30.03 in 10.0 mi SE 20.7 mph 27.6 mph N/A   Clear
11:35 AM 35.6 °F 24.2 °F 24.8 °F 65% 30.01 in 10.0 mi SE 21.9 mph 29.9 mph N/A   Clear
11:55 AM 37.4 °F 26.6 °F 24.8 °F 60% 30.00 in 10.0 mi SE 21.9 mph 32.2 mph N/A   Clear
12:15 PM 37.4 °F 26.6 °F 24.8 °F 60% 29.98 in 10.0 mi SE 21.9 mph 32.2 mph N/A   Clear
12:35 PM 39.2 °F 28.3 °F 24.8 °F 56% 29.96 in 10.0 mi SE 25.3 mph 35.7 mph N/A   Clear
12:55 PM 39.2 °F 28.5 °F 24.8 °F 56% 29.94 in 10.0 mi SE 24.2 mph 35.7 mph N/A   Clear
1:15 PM 39.2 °F 28.0 °F 24.8 °F 56% 29.92 in 10.0 mi SE 26.5 mph 34.5 mph N/A   Clear
1:35 PM 41.0 °F 30.5 °F 24.8 °F 53% 29.89 in 10.0 mi SE 26.5 mph 32.2 mph N/A   Clear
1:55 PM 41.0 °F 29.8 °F 24.8 °F 53% 29.86 in 10.0 mi SE 29.9 mph 38.0 mph N/A   Clear
2:15 PM 41.0 °F 30.7 °F 24.8 °F 53% 29.84 in 10.0 mi SE 25.3 mph 36.8 mph N/A   Clear
2:35 PM 41.0 °F 30.2 °F 24.8 °F 53% 29.83 in 10.0 mi SSE 27.6 mph 35.7 mph N/A   Clear
2:55 PM 42.8 °F 34.0 °F 26.6 °F 53% 29.84 in 10.0 mi SE 20.7 mph 34.5 mph N/A   Clear
3:15 PM 44.6 °F 36.6 °F 26.6 °F 49% 29.83 in 10.0 mi SE 19.6 mph 27.6 mph N/A   Clear
3:35 PM 44.6 °F 36.1 °F 28.4 °F 53% 29.83 in 10.0 mi SE 21.9 mph 27.6 mph N/A   Clear
3:55 PM 46.4 °F 38.7 °F 28.4 °F 50% 29.82 in 10.0 mi SE 20.7 mph 27.6 mph N/A   Clear
4:15 PM 46.4 °F 39.0 °F 28.4 °F 50% 29.81 in 10.0 mi SE 19.6 mph 24.2 mph N/A   Clear
4:35 PM 46.4 °F 39.5 °F 30.2 °F 53% 29.79 in 10.0 mi SE 17.3 mph 24.2 mph N/A   Clear
4:55 PM 48.2 °F - 30.2 °F 50% 29.78 in 10.0 mi SE 17.3 mph 28.8 mph N/A   Clear
5:15 PM 48.2 °F - 32.0 °F 54% 29.78 in 10.0 mi SE 18.4 mph 25.3 mph N/A   Clear
5:35 PM 48.2 °F - 32.0 °F 54% 29.76 in 10.0 mi SE 19.6 mph - N/A   Clear
5:55 PM 50.0 °F - 32.0 °F 50% 29.74 in 10.0 mi SE 23.0 mph 28.8 mph N/A   Clear
6:15 PM 50.0 °F - 32.0 °F 50% 29.73 in 10.0 mi SE 19.6 mph 29.9 mph N/A   Clear
6:35 PM 50.0 °F - 32.0 °F 50% 29.73 in 10.0 mi SE 16.1 mph 24.2 mph N/A   Clear
6:55 PM 50.0 °F - 33.8 °F 54% 29.72 in 10.0 mi SE 13.8 mph - N/A   Clear
7:15 PM 50.0 °F - 35.6 °F 58% 29.71 in 10.0 mi SE 15.0 mph - N/A   Clear
7:35 PM 48.2 °F - 35.6 °F 62% 29.69 in 10.0 mi SE 16.1 mph - N/A   Clear
7:55 PM 48.2 °F - 35.6 °F 62% 29.69 in 10.0 mi SE 17.3 mph 23.0 mph N/A   Clear
8:15 PM 48.2 °F - 35.6 °F 62% 29.68 in 10.0 mi SE 19.6 mph 25.3 mph N/A   Clear
8:35 PM 48.2 °F - 35.6 °F 62% 29.67 in 10.0 mi SE 17.3 mph 24.2 mph N/A   Scattered Clouds
8:55 PM 48.2 °F - 35.6 °F 62% 29.67 in 10.0 mi SE 19.6 mph - N/A   Scattered Clouds
9:15 PM 48.2 °F - 35.6 °F 62% 29.66 in 10.0 mi SE 18.4 mph 25.3 mph N/A   Mostly Cloudy
9:35 PM 46.4 °F 39.5 °F 35.6 °F 66% 29.66 in 10.0 mi SE 17.3 mph 23.0 mph N/A   Mostly Cloudy
9:55 PM 46.4 °F 39.0 °F 35.6 °F 66% 29.65 in 10.0 mi SE 19.6 mph 24.2 mph N/A   Mostly Cloudy
10:15 PM 46.4 °F 39.5 °F 35.6 °F 66% 29.65 in 10.0 mi SE 17.3 mph 23.0 mph N/A   Partly Cloudy
10:35 PM 46.4 °F 39.5 °F 35.6 °F 66% 29.64 in 10.0 mi SE 17.3 mph 24.2 mph N/A   Partly Cloudy
10:55 PM 46.4 °F 39.2 °F 35.6 °F 66% 29.63 in 10.0 mi SE 18.4 mph 28.8 mph N/A   Scattered Clouds
11:15 PM 46.4 °F 39.5 °F 37.4 °F 71% 29.60 in 10.0 mi SE 17.3 mph 25.3 mph N/A   Mostly Cloudy
11:35 PM 46.4 °F 40.1 °F 37.4 °F 71% 29.61 in 10.0 mi SE 15.0 mph - N/A   Mostly Cloudy
11:55 PM 46.4 °F 41.1 °F 37.4 °F 71% 29.60 in 10.0 mi SE 11.5 mph - N/A   Mostly Cloudy